Terminal Aerodrome Forecast
Issued by NWS Denver/Boulder, CO

Home | Current Version | Previous Version | Text Only | Print | Product List | Glossary On
Versions: 1 2 3 4 5 6 7 8 9 10 11 12 13 14 15 16 17 18 19 20 21 22 23 24 25 26 27 28 29 30 31 32 33 34 35 36 37 38 39 40 41 42 43 44 45 46 47 48 49 50
711
FTUS45 KBOU 241732
TAFDEN
TAF
KDEN 241732Z 2418/2524 01015G25KT P6SM VCSH SCT040 BKN050 BKN090
      TEMPO 2418/2420 -SHRA BKN035
     FM242100 03012KT P6SM VCSH SCT040 BKN060
     FM250000 09009KT P6SM SCT060 SCT090
     FM250200 17007KT P6SM FEW100
     FM250500 20008KT P6SM FEW250
     FM251500 15008KT P6SM SCT250=

USA.gov is the U.S. government's official web portal to all federal, state and local government web resources and services.